SL-12 DEB, 43527

Orbit data source: Space-Track

SL-12 DEB, 43527 is space debris in HEO originally from a launch on Mon, 01 Mar 2010 UTC launched from the Tyuratam Missile And Space Complex (TTMTR). Debris objects in space refer to the collection of defunct objects orbiting the Earth. Examples of debris include non-operational satellites, rocket bodies, and fragments generated from explosions, collisions, or faulty payload assembly.

Loading next visibility...
Identifier
43527, 2010-007Z
Orbit
HEO
Country
Flag of CISCIS
Related business
Manufacturer
RKKE
Mission
Spacecraft
Bus & Motor
Unknown
Mass
Unknown
Launch date (UTC)
2010-03-01 (16 years ago)
Launch vehicle
Unknown
Launch site
Tyuratam Missile And Space Complex (TTMTR)
Object type
Payload
Rocket body
Debris
Shape & HBR
Unknown shape, 0.6 m
Radar Cross Section
Medium (>0.1 m² and <1 m²)

Expand to show TLE details & history
Last TLE update: 5 hours ago

TLE from 5 hours ago
0 SL-12 DEB
1 43527U 10007Z   25318.81712608  .00000363  00000-0  34741-2 0  9994
2 43527  65.0112 261.0092 5612184 305.2844  14.2540  4.26483358114826
Epoch: 2025-11-14T19:36Z
TLE epoch observation values (Epoch: 2025-11-14T19:36:39.693Z)
Latitude
0.00007°
Longitude
-87.33081°
Altitude
1,935.101 km
Speed
8.432 km/s
True Right ascension
17h 23m 57s
True Declination
0° 00' 00"
Sunlit
Object was in daylight at epoch
Visualization orbit readout
Latitude
Unknown
Longitude
Unknown
Altitude
Unknown
Speed
Unknown
Apparent Right ascension
Unknown
Apparent Declination
Unknown
Sunlit
N/A
Visualization observer readout
Local Sidereal Time
21:29:02
Azimuth
Unknown
Elevation
Unknown
Doppler factor
Unknown
Orbital elements
Apogee altitude
18,696.462 km
Perigee altitude
669.098 km
Semi-major axis
16,060.917 km
Eccentricity
0.56122
Inclination
65.0112°
RAAN
261.0092°
Arg. of periapsis
305.2844°
True anomaly
54.65966°
Mean anomaly
14.254°
Eccentric anomaly
30.64343°
Mean motion
1.06632 °/min
Orbital period
337.61 mins
BSTAR
0.0034741
Loading maneuver chart data...
Computing Atmospheric mass density...
Loading historical data...
Loading historical data...
Loading historical data...
Loading historical data...
Loading historical data...
Loading historical data...
Loading historical data...

Documentation

Showing up to 5 results
|